CZ-6A DEB

Satellite information

Favourite Embed

Satellite Type and Status

DEBRISIN ORBIT

Key statistics

Satellite CZ-6A DEB at a glance.

Uptime

1128

Days in orbit

Revolutions

≈ 14.3

Per day

Orbit

SSO

Sun Synchronous Orbit

Inclination

98.7

Latest

Satellite identification and parameters

Extended collection of information and parameters for CZ-6A DEB.

Object identification

Identified? True

Debris? True

Object name: CZ-6A DEB

International designator: 2022-151LN

Object number (NORAD): 54562

Object ID (CCSDS): 54562

Country: PEOPLES REPUBLIC OF CHINA (PRC)

Current information (Y/N): Y

RCS size: SMALL

Orbital parameters

Period: 100.603 minutes

Inclination: 98.7151 deg

SMA: 7165.315 km

Apoapsis: 832.256 km

Periapsis: 742.103 km

RAAN: 10.028 deg

Eccentricy: 0.0062909

Argument of periapsis: 151.2739 deg

Mean anomaly: 209.1932 deg

Mean motion: 14.31363224 rev/day

Mean motion (dot): 0.00002253 rev/day2

B* drag term: 0.00084819 1/REarth

Two-line elements (TLE)

Creation date: Dec. 12, 2025, 7:26 a.m.

Reference frame: TEME

Reference center: EARTH

Epoch: Dec. 12, 2025, 12:52 a.m. UTC

TLE line 0: 0 CZ-6A DEB

TLE line 1: 1 54562U 22151LN 25346.03649174 .00002253 00000-0 84819-3 0 9992

TLE line 2: 2 54562 98.7151 10.0280 0062909 151.2739 209.1932 14.31363224160530

Live tracking on map

Real-time ground track for satellite CZ-6A DEB.

In-orbit conjunctions

A list of the most updated potential collisions computed for object CZ-6A DEB.

Target Orbit TCA Probability of collision Miss distance Type
COSMOS 2251 DEB LEO 2025-12-03 02:20:54 0.0002326875 307.0 (m) DEBRIS
METEOR 2-8 DEB LEO 2025-02-02 12:41:04 0.0001200137 285.0 (m) DEBRIS
NOAA 16 DEB SSO 2024-11-13 16:17:34 0.001383118 129.0 (m) DEBRIS
SL-3 R/B LEO 2024-10-27 01:38:08 0.001128625 92.0 (m) ROCKET BODY

Associated space launch

Chinese satellite reported for atmospheric/ocean/environmental/spatial parameter research purposes, details TBD.

CZ-6A DEB was lifted into orbit during the mission ‘Long March 6A | Yunhai 3’, on board a Long March 6A space rocket.

The launch took place on Nov. 11, 2022, 10:52 p.m. from Launch Complex 9A.

For more information about the launch, click the button.

Launch to space Long March 6A | Yunhai 3
Long March 6A | Yunhai 3

Agency: N/A

Status: Launch Successful

Launch date: Nov. 11, 2022, 10:52 p.m. UTC

Rocket: Long March 6A

Launch pad: Launch Complex 9A

Location: Taiyuan Satellite Launch Center, People's Republic of China

...

Latest news about this satellite

There are no fresh news available about this satellite. Check back as we update our databases every day.


Newsletter sign-up

Weekly statistics, charts and insights to help you stay on top of the space industry.